Location: Kershaw
(34.5481°N, 80.5823°W)
Time: 08:50:19
(UTC+00:00)

Tiros 1 despin weight - Pass Details

Date: 08 October 2022
Orbit: 590 x 637 km, 48.2° (Epoch: 02 December)

Event Time Altitude Azimuth Distance (km) Brightness Sun altitude
Rises 00:25:48 0° 312° (NW) 2,876 ? -18.9°
Reaches altitude 10° 00:28:19 10° 323° (NW) 1,978 ? -19.4°
Maximum altitude 00:32:22 31° 26° (NNE) 1,103 ? -20.2°
Enters shadow 00:32:50 30° 38° (NE) 1,120 ? -20.3°
